Wind_Speed
79 78 77 75 73 72 72 71 71 72 71 71 72 73 73 73 72 71 71 70 70 69 69 68 67 67 67 67 67 67 67 66 66 66 65 65 64 64 64 63 63 63 62 62 62 62 62 62 62 63 63 63 63 62 61 60 60 60 59 59 59 60 60 60 60 60 59 60 60 59 59 57 57 56 56 56 56 54 51 48 45 43 41 39 39 39
80 79 78 77 75 74 73 73 72 71 71 71 71 72 73 72 72 71 71 70 70 69 68 68 67 66 66 67 67 67 67 66 66 66 65 65 64 64 63 63 62 62 62 62 62 61 61 62 62 63 64 64 64 63 62 61 61 60 60 59 59 59 60 60 60 60 60 60 60 60 59 58 57 57 57 57 58 58 58 57 55 53 50 47 45 44
80 79 79 78 77 76 75 74 73 72 71 71 71 71 72 72 72 71 71 70 69 69 68 67 66 66 66 66 66 66 66 66 66 66 65 65 65 64 63 63 62 62 62 61 61 61 61 62 62 63 64 64 63 63 62 62 62 61 60 60 60 60 60 60 60 60 60 60 59 59 59 59 58 58 57 58 58 59 60 61 60 59 57 54 51 49
79 79 79 79 78 77 76 75 74 72 71 71 70 70 71 71 71 71 71 70 69 68 67 67 66 66 65 65 65 66 66 66 66 65 65 65 64 64 63 63 62 62 62 62 61 61 61 62 63 63 63 63 63 63 62 62 62 61 61 60 60 60 60 60 60 60 60 60 60 60 59 59 59 58 58 58 58 59 60 60 60 60 59 57 54 52
78 78 79 79 78 78 77 76 75 73 72 71 70 70 70 71 71 71 70 70 69 68 68 67 67 66 65 65 65 65 65 65 65 65 65 65 64 64 63 63 62 62 62 62 62 62 62 63 63 64 64 63 63 63 62 62 61 61 60 60 60 61 61 60 60 60 60 60 60 60 60 60 60 59 59 59 59 59 59 60 60 59 59 57 55 53
77 78 78 78 78 78 78 77 75 74 72 71 70 70 70 71 71 71 70 69 69 68 68 68 68 67 66 65 65 65 65 65 65 65 65 64 64 63 62 62 62 62 62 63 63 63 63 64 64 63 61 64 64 63 63 62 61 61 60 60 60 61 62 61 60 60 60 60 61 61 61 61 60 60 60 59 59 59 59 59 59 59 58 57 56 54
76 76 77 77 77 78 77 77 75 74 72 72 71 70 70 71 71 70 70 69 69 69 69 69 68 67 67 66 66 65 65 64 64 64 64 64 63 62 61 61 60 60 60 61 62 63 64 64 65 63 57 63 65 64 64 62 62 61 61 60 60 61 61 61 61 61 61 61 62 62 62 61 61 61 60 60 60 59 59 59 59 59 58 58 57 55
74 74 75 75 76 77 77 76 75 74 73 72 71 70 70 70 70 70 70 70 70 70 69 69 68 68 67 67 66 66 65 65 64 64 64 64 63 62 61 59 58 58 58 59 60 61 62 63 65 65 62 64 65 65 64 63 62 61 61 61 61 61 61 61 61 61 61 62 62 63 62 62 62 62 61 61 60 60 60 60 59 59 59 58 58 57
72 73 74 74 75 75 76 76 75 74 73 72 72 71 70 70 70 70 70 69 69 70 69 69 69 68 68 67 67 66 65 65 65 65 64 64 63 62 61 59 58 57 56 56 57 58 60 61 62 63 64 64 64 64 64 63 63 62 62 62 62 62 62 62 62 62 62 62 62 63 63 63 62 62 62 61 60 60 60 60 60 60 60 60 59 58
71 72 72 73 74 75 75 75 75 74 73 72 71 71 70 70 70 69 69 69 70 70 70 70 69 69 69 68 67 66 66 65 65 65 65 64 63 62 62 60 59 57 56 56 56 57 58 59 60 60 61 61 61 62 62 62 62 62 62 62 63 63 63 63 63 64 64 63 63 63 63 62 62 62 62 61 61 60 60 60 60 60 61 60 60 60
70 71 71 72 73 74 74 75 75 74 72 70 70 71 71 70 70 70 70 70 70 70 70 70 69 69 69 69 68 68 67 66 66 66 65 64 63 63 63 62 61 61 59 58 58 58 59 59 59 59 59 59 59 59 60 60 61 61 62 62 62 62 63 63 64 64 64 64 63 63 62 62 62 61 61 60 60 60 60 60 60 60 60 61 61 60
69 70 70 71 72 72 73 74 74 73 71 70 66 63 66 69 70 70 70 71 72 71 71 70 70 70 70 70 70 69 68 67 67 66 66 65 64 64 64 64 64 64 64 63 62 61 61 61 61 61 60 60 59 59 59 59 60 60 60 60 61 61 62 62 62 62 63 63 62 62 61 61 61 61 60 60 60 60 59 59 59 59 60 60 60 60
67 68 69 70 71 72 72 73 73 72 71 70 67 63 64 65 63 63 68 71 72 72 72 71 71 70 70 70 70 70 69 69 69 68 68 67 66 66 66 66 66 67 67 67 65 64 64 64 63 63 63 62 61 61 61 61 61 60 60 60 60 60 61 61 61 61 61 61 61 61 61 61 60 60 60 60 60 60 59 59 59 59 59 59 59 59
65 66 67 68 69 70 71 72 72 71 71 70 70 68 67 63 57 56 62 67 71 73 73 72 71 71 71 71 71 71 70 70 70 70 69 69 69 68 68 67 67 67 68 67 67 67 66 66 65 64 64 63 63 63 63 63 62 61 61 61 61 60 60 60 60 60 60 60 60 61 61 60 60 60 60 60 60 60 60 60 59 59 59 59 59 59
61 63 64 66 68 69 70 71 71 71 71 70 70 69 68 64 60 58 60 64 68 71 72 72 72 71 71 71 71 71 71 71 71 70 70 70 70 70 69 68 68 67 67 66 66 66 66 65 65 64 64 64 63 63 63 63 63 62 62 61 61 60 59 58 57 56 56 56 57 57 58 58 59 59 59 60 60 60 60 60 60 60 60 60 59 59
58 59 61 64 65 67 69 69 70 70 70 69 69 69 69 67 66 65 64 64 66 68 70 72 73 72 72 72 72 72 72 71 71 71 71 71 71 71 69 69 68 68 67 65 65 65 65 64 64 64 63 63 63 63 64 63 63 63 63 62 62 61 59 57 55 53 51 52 52 53 53 54 55 56 57 57 58 58 59 59 60 60 60 60 60 60
53 55 58 60 62 62 61 64 67 69 69 69 68 68 68 69 68 66 66 66 66 67 69 73 74 74 73 73 73 73 72 71 71 71 71 71 71 71 71 70 71 71 68 67 66 66 65 65 64 64 63 63 63 63 63 63 63 63 63 62 62 62 61 59 57 55 53 53 53 53 53 54 54 55 55 56 56 57 57 58 58 59 60 60 60 60
49 52 54 57 59 59 56 58 62 66 68 68 68 68 68 67 65 64 66 67 67 67 69 72 73 74 74 74 74 74 73 72 71 71 70 70 70 71 71 71 71 71 70 70 70 69 68 67 67 66 65 65 64 64 63 63 63 63 62 62 62 62 62 62 61 61 60 59 58 57 56 56 56 56 57 57 57 57 57 57 57 58 59 59 60 60
47 49 51 54 56 57 56 55 57 61 64 65 66 66 65 63 62 63 65 68 69 70 70 71 71 72 73 73 74 74 74 72 72 71 70 69 69 69 69 69 70 70 71 71 72 72 71 70 69 69 68 67 66 66 65 65 64 63 63 63 63 63 63 63 64 64 65 64 64 63 61 60 59 58 58 58 58 59 58 58 58 58 58 59 60 60
46 47 49 52 54 55 55 55 56 59 61 62 63 63 62 61 62 63 64 68 70 71 70 70 70 71 72 72 72 73 73 73 72 72 71 71 70 69 69 68 68 68 68 70 71 72 72 71 71 70 69 69 68 67 67 66 66 65 65 64 64 64 64 64 65 65 66 67 67 67 67 66 65 64 63 62 62 61 61 60 60 60 60 60 61 62
45 46 48 50 51 53 54 54 55 57 58 59 59 60 60 61 62 62 64 67 69 69 69 68 69 70 70 70 70 71 71 72 72 72 72 72 71 71 70 70 70 69 68 69 70 72 72 72 72 71 71 70 69 68 68 68 67 67 66 66 66 65 65 65 65 65 66 66 67 69 70 71 71 71 71 70 69 68 67 66 65 64 64 64 64 64
44 45 47 48 50 51 53 54 55 56 57 57 57 57 58 60 61 62 63 65 67 68 69 69 70 69 69 68 68 69 69 70 71 72 72 71 71 72 72 71 71 70 70 70 70 71 72 72 72 72 71 71 70 69 69 68 68 68 68 67 67 67 66 66 66 66 66 67 67 68 69 70 72 73 74 74 75 75 74 74 73 72 71 70 69 68
44 43 43 44 46 49 51 53 54 55 56 57 57 57 57 59 60 62 63 64 65 66 67 67 68 68 67 67 68 68 68 68 70 70 70 70 71 72 72 72 71 71 71 71 72 71 71 71 71 71 71 71 71 70 70 69 69 69 68 68 68 68 68 67 67 67 67 68 68 68 69 69 70 71 72 72 73 74 75 75 76 76 75 74 73 71
42 40 38 38 40 44 47 50 52 54 56 57 57 57 57 57 59 61 62 63 63 63 64 63 63 64 65 68 68 68 68 68 69 69 69 69 71 72 72 71 71 71 72 72 72 71 71 71 71 71 71 71 71 70 70 69 69 69 69 69 69 69 69 68 68 68 68 68 69 69 69 69 70 70 70 71 71 72 72 73 73 73 74 73 73 73
42 39 36 34 35 38 43 46 49 53 56 58 59 59 58 57 58 59 60 61 61 61 60 59 59 62 65 66 67 67 67 68 68 68 68 69 70 71 71 71 71 71 72 72 71 71 70 71 71 71 70 71 71 70 70 69 69 69 69 69 69 69 69 69 69 69 69 69 69 69 70 70 70 70 71 71 71 71 71 71 72 72 72 72 72 73
43 41 40 37 36 38 42 44 46 49 54 59 62 62 60 58 58 58 58 59 60 59 58 57 58 60 63 63 64 64 65 66 66 67 68 68 69 69 70 71 71 72 72 71 71 71 71 71 72 71 71 71 71 70 70 69 69 69 69 69 69 70 70 70 70 70 70 70 70 70 70 71 71 71 71 71 71 71 71 71 71 71 71 72 72 73
46 46 45 43 41 42 43 43 43 46 51 57 62 64 62 59 57 56 57 57 58 57 56 56 57 59 61 61 61 62 63 64 64 65 66 67 67 68 69 70 71 71 71 71 71 72 72 72 72 72 72 72 71 71 70 69 69 69 69 69 69 69 70 70 70 70 70 70 70 70 71 71 71 72 72 72 72 72 71 71 71 71 71 72 72 72
51 51 50 48 47 47 46 44 42 43 47 54 60 63 63 60 57 55 54 54 54 53 53 54 57 59 60 60 61 62 62 61 62 63 64 64 64 65 67 68 69 69 70 71 72 73 73 73 73 73 72 72 72 71 70 70 70 69 69 69 69 69 69 69 70 70 70 70 70 70 71 71 71 72 72 72 72 72 71 71 71 71 72 72 72 72
55 56 53 51 50 50 49 47 44 42 44 49 55 59 61 60 57 55 54 52 50 50 51 54 57 59 60 61 61 61 61 61 61 62 61 61 61 63 65 65 65 67 68 70 71 71 72 73 73 72 72 72 71 71 70 70 70 69 69 69 69 69 69 69 69 69 69 69 70 70 70 71 71 71 72 72 72 71 71 71 71 72 72 72 72 72
59 59 55 53 52 52 52 50 47 43 42 45 50 54 58 58 58 57 54 51 50 51 53 56 57 58 59 60 61 62 62 63 63 63 61 60 61 62 63 63 63 65 66 67 67 68 70 72 72 71 71 71 70 70 70 70 69 69 69 69 69 69 69 69 69 69 69 69 69 70 70 70 71 71 71 71 71 71 72 72 72 72 72 72 72 72
61 60 57 54 52 52 51 50 48 44 42 43 47 51 54 56 57 56 54 53 53 55 56 57 57 57 58 59 61 63 64 65 66 65 63 61 62 63 63 62 62 63 64 64 65 66 68 69 70 70 69 69 69 69 69 69 68 68 68 68 68 69 69 69 68 68 68 69 69 69 69 70 70 70 71 71 71 71 71 72 72 72 72 72 72 72
61 61 59 56 53 50 49 49 47 45 43 43 46 50 53 56 56 56 56 56 56 56 56 55 54 54 56 58 60 62 64 65 66 65 64 64 65 66 65 63 63 63 64 64 64 65 66 67 67 67 67 67 68 68 68 67 67 67 67 67 67 68 68 68 68 68 68 68 68 69 69 69 69 70 70 70 70 70 71 71 71 71 72 72 72 72
59 61 60 58 54 51 48 47 46 45 44 44 46 49 53 56 58 59 59 58 57 55 53 53 52 52 53 55 56 58 60 61 63 63 64 65 67 67 67 65 64 65 64 64 64 64 65 65 65 65 65 66 66 66 66 66 65 66 66 66 66 66 67 67 66 67 67 67 68 68 68 68 68 69 69 69 69 69 69 69 70 70 70 70 70 70
57 59 60 59 57 53 49 47 46 45 45 46 47 49 53 56 59 61 61 59 57 54 52 51 51 50 51 51 52 53 55 57 59 61 62 64 66 67 67 66 66 66 65 64 64 65 65 65 65 64 64 64 64 64 64 63 64 64 64 64 64 64 65 65 65 65 66 66 66 66 67 67 67 67 67 68 68 68 68 68 68 68 68 68 68 68
53 56 58 59 58 56 52 48 46 46 47 48 49 50 53 56 59 61 61 60 59 56 53 51 49 48 48 48 48 49 50 51 52 53 55 58 61 63 64 65 65 66 65 65 65 65 65 65 64 64 63 63 63 63 62 62 62 62 62 62 62 63 63 63 63 64 65 65 65 65 65 65 66 66 66 66 66 66 66 66 66 66 66 66 66 66
51 53 55 57 58 57 54 51 48 47 48 49 51 52 54 56 59 60 61 63 63 60 56 52 49 48 48 48 48 47 46 45 43 43 44 47 50 54 56 59 61 62 63 63 63 64 63 63 63 63 63 62 62 62 62 62 61 61 61 61 61 62 62 62 62 62 63 63 63 63 63 63 63 63 64 64 64 64 64 64 64 64 64 64 64 64
50 51 52 54 55 56 55 53 50 48 48 50 52 54 56 57 58 59 62 64 66 64 60 56 52 51 51 51 50 48 45 42 39 36 35 36 38 40 43 47 50 52 54 56 58 59 60 60 60 60 60 61 61 61 60 60 60 59 60 60 60 60 60 60 60 60 60 61 61 61 61 61 61 61 61 62 62 61 62 62 62 62 62 62 62 62
50 50 51 51 53 54 54 53 51 49 48 50 53 55 56 57 56 57 59 62 65 65 63 61 58 57 56 54 52 49 46 43 40 38 36 34 34 35 36 37 39 40 43 47 49 51 52 53 54 55 56 58 58 59 58 58 57 58 58 59 58 58 58 58 58 58 58 58 59 59 59 59 59 59 59 59 59 59 59 59 60 60 60 60 60 61
51 51 50 50 50 51 52 52 51 49 49 50 52 54 56 56 56 55 56 59 62 64 64 63 62 61 59 57 54 51 49 47 45 43 41 40 39 38 38 38 37 37 39 41 43 44 45 47 49 50 51 52 53 54 55 55 55 56 57 56 56 55 55 56 56 55 55 56 56 57 57 57 57 57 56 57 56 56 56 57 57 58 58 58 58 59
52 52 51 50 50 50 51 51 51 50 49 49 51 53 54 55 55 55 55 56 59 61 63 63 63 61 60 58 56 54 52 50 48 47 45 44 44 43 42 41 41 40 40 41 42 42 43 44 45 46 46 47 49 50 52 52 53 54 54 53 52 53 54 54 53 53 53 54 54 55 55 55 55 54 54 54 54 54 54 55 55 55 56 56 56 57
52 52 52 51 50 50 50 51 50 50 49 49 50 51 52 53 54 55 55 56 57 58 59 61 61 61 59 58 57 56 54 52 51 49 47 46 45 45 44 43 43 43 42 43 43 43 43 43 43 43 43 44 46 48 49 50 51 51 51 51 51 52 52 52 51 51 52 52 53 53 53 53 53 53 53 53 53 54 54 54 54 54 54 55 55 56
51 52 52 51 50 50 50 50 50 50 50 50 50 51 52 52 53 54 55 56 57 57 57 58 60 60 60 59 58 57 56 54 52 51 49 47 46 45 45 45 45 45 45 45 46 46 45 45 44 43 43 44 44 45 47 48 49 49 49 50 51 51 51 50 50 51 51 51 52 52 52 52 52 52 52 53 53 53 53 53 53 54 54 54 55 55
50 51 51 51 51 51 51 51 51 51 51 51 51 52 52 53 53 54 55 56 57 58 58 58 59 60 60 60 59 58 57 56 55 53 51 50 49 48 48 48 49 49 49 49 49 49 48 47 47 46 46 46 46 46 46 47 48 48 49 49 50 49 49 49 50 51 50 51 51 51 50 50 51 51 51 52 52 53 53 53 54 54 54 55 55 55
49 50 50 50 50 50 50 50 51 51 52 52 53 53 53 54 54 55 55 56 57 58 59 60 60 60 60 60 60 59 59 58 58 57 56 55 54 53 53 53 53 54 53 53 52 52 51 50 50 50 49 49 49 49 49 49 49 49 50 50 50 49 49 50 50 49 49 49 50 49 49 49 49 49 50 51 51 52 53 53 54 54 54 54 54 54
48 49 49 49 49 49 50 50 51 51 52 52 53 53 54 55 55 56 56 57 58 59 60 61 62 62 62 62 62 61 61 61 61 60 60 59 59 58 58 58 57 57 56 56 55 54 53 52 52 52 52 51 51 51 51 51 51 51 51 51 51 51 51 51 50 49 48 49 49 49 49 48 48 49 50 51 51 52 52 52 53 53 53 53 53 53
46 48 48 49 49 49 50 50 51 51 52 52 53 53 54 55 55 56 56 57 57 58 59 61 61 62 63 63 62 61 60 60 60 59 59 59 59 59 59 59 58 58 57 57 56 55 55 54 54 54 53 53 53 53 53 53 53 52 52 52 52 52 52 52 51 51 50 50 50 50 50 50 50 50 51 51 52 52 52 52 52 52 52 53 53 53
46 47 48 48 49 49 50 50 51 52 52 53 53 54 54 55 55 55 55 56 56 57 58 59 60 60 60 60 59 59 58 58 58 58 58 58 58 57 57 57 57 57 57 56 56 56 55 55 55 54 54 54 54 55 55 54 54 54 54 54 53 53 53 53 53 53 52 52 52 52 52 52 52 52 53 53 53 53 52 52 52 53 53 53 53 53
46 47 48 48 49 49 50 51 51 52 53 53 54 54 55 55 55 55 55 55 55 56 56 57 57 58 58 58 58 58 58 57 58 58 58 58 58 58 58 57 57 57 57 57 57 57 56 56 56 55 55 54 54 55 55 54 54 54 54 54 54 53 54 54 54 54 54 54 54 55 55 54 54 54 55 54 54 54 54 54 54 54 54 54 54 54
46 47 48 48 49 49 50 51 52 53 53 54 55 55 56 56 57 57 56 56 55 55 55 55 55 56 56 57 57 58 58 58 58 58 58 58 58 58 58 58 58 58 58 58 58 57 57 57 56 55 55 54 54 54 53 53 53 52 52 52 52 52 52 53 53 53 53 54 55 56 56 56 56 56 55 55 55 55 55 54 54 54 54 54 54 54
46 47 48 48 49 49 50 51 52 53 54 55 56 56 57 57 58 58 58 57 57 56 56 55 55 55 56 57 58 58 58 58 59 59 59 59 59 59 58 58 58 58 57 57 57 57 57 56 55 55 54 53 52 52 51 51 50 50 49 49 49 49 49 50 50 51 51 52 53 54 54 55 55 55 55 54 54 54 54 54 54 54 54 54 54 54
47 47 48 49 49 49 50 51 52 53 54 55 56 57 58 58 58 59 59 58 58 58 57 57 56 56 56 58 58 59 59 59 59 59 59 59 59 58 58 58 57 57 57 57 56 56 55 54 54 53 52 51 50 50 49 48 48 47 47 47 47 47 47 48 48 49 49 50 51 51 52 52 52 53 53 53 53 53 53 53 53 53 53 53 53 53
Wind_Direction
231 231 230 229 229 229 229 229 229 229 230 232 233 235 235 235 234 234 234 234 234 234 233 233 233 234 234 234 235 235 235 235 235 235 235 235 235 235 235 235 235 235 236 236 236 236 236 236 236 237 237 238 238 238 238 238 237 237 237 237 237 237 237 237 238 238 239 239 240 240 240 240 240 240 240 240 240 239 238 237 237 239 242 245 247 248
232 232 231 230 230 230 230 230 229 229 229 230 232 234 235 235 235 235 235 235 234 234 234 234 234 234 234 234 235 235 235 236 236 236 235 235 235 235 235 235 235 235 235 235 235 235 235 235 235 236 236 237 238 238 237 237 237 237 237 237 237 237 237 237 238 238 239 239 240 240 241 241 240 241 241 241 241 241 242 243 244 246 248 250 251 250
233 233 232 232 231 231 231 231 230 230 229 230 231 233 235 235 235 235 235 235 235 235 235 234 234 234 234 234 235 235 236 236 236 236 236 236 235 235 235 235 235 235 236 236 235 235 235 235 235 235 235 236 237 237 237 237 237 237 237 237 237 237 237 238 238 238 239 240 240 241 241 241 241 241 241 242 242 243 244 245 247 248 250 251 251 250
233 233 233 232 232 232 232 232 232 231 230 230 231 233 234 235 236 235 235 235 235 235 235 235 234 234 234 234 234 235 235 236 236 236 236 236 236 236 236 236 235 236 236 236 236 235 235 234 234 234 235 235 235 235 236 236 236 236 237 237 237 237 237 237 238 238 239 240 240 241 242 242 242 242 242 243 243 243 244 245 247 248 249 250 249 249
233 233 233 233 233 233 232 232 232 232 232 231 232 233 234 235 236 236 236 235 236 236 235 235 234 234 233 233 234 234 234 235 235 236 236 236 236 236 236 236 236 236 236 236 236 235 235 235 235 235 235 234 234 235 235 236 236 236 236 236 236 237 238 238 238 238 239 240 241 242 243 243 244 244 244 244 244 244 245 245 246 247 247 248 248 247
233 233 233 233 233 233 233 233 233 233 233 233 233 233 234 235 236 236 236 236 236 236 236 235 235 234 234 233 233 234 234 234 235 235 235 236 236 236 236 236 236 236 236 236 236 235 235 235 235 234 232 234 234 234 235 235 236 236 236 237 237 238 239 238 238 238 239 240 241 242 243 244 244 245 245 245 245 245 245 245 246 246 246 246 246 245
233 233 233 233 233 233 233 233 233 233 233 233 233 233 234 235 235 236 236 236 236 236 236 236 236 235 234 234 234 234 234 234 234 234 235 235 235 235 235 235 235 234 234 234 235 235 235 235 235 233 228 233 234 234 235 235 236 236 237 237 237 238 238 239 239 239 240 241 242 242 243 244 245 245 246 246 246 245 245 245 245 245 245 245 245 244
233 233 233 233 233 233 233 233 232 232 233 233 233 233 234 235 235 236 236 236 236 236 236 236 236 236 235 234 234 234 234 234 234 234 234 234 234 234 233 233 232 232 232 232 232 233 233 234 234 233 232 233 235 235 235 235 236 236 237 238 238 239 239 239 239 240 241 241 242 242 243 244 245 245 246 246 246 246 246 245 245 245 245 245 245 244
233 233 233 233 233 233 233 233 232 232 232 233 233 233 234 234 235 235 235 236 236 236 236 236 236 236 235 235 234 234 234 234 234 234 234 233 233 232 232 231 230 230 230 230 230 231 231 232 233 233 234 234 235 235 236 236 237 237 238 238 239 239 240 240 240 240 241 242 242 243 243 244 245 245 246 246 246 246 246 245 245 245 245 245 245 244
233 233 233 233 233 233 234 233 232 232 232 232 232 233 233 234 234 234 234 235 235 235 236 236 236 236 235 235 235 234 234 234 233 233 232 231 231 231 230 230 229 229 229 228 229 229 230 231 232 233 233 234 235 236 237 237 238 238 238 239 239 240 240 240 240 241 242 242 243 243 244 245 245 245 245 245 245 246 246 245 245 245 245 245 245 244
232 232 232 233 233 233 233 233 233 232 231 231 232 232 233 233 233 234 234 234 234 234 235 235 235 235 235 235 235 234 234 233 233 232 232 231 230 230 230 230 230 229 229 229 229 230 230 230 231 233 234 234 235 236 237 238 238 239 239 239 240 240 240 241 241 242 242 243 243 244 244 245 245 245 245 245 245 245 245 245 245 245 245 245 245 245
232 232 232 232 232 233 233 233 233 232 231 230 229 229 231 232 233 233 233 233 234 234 234 234 234 235 235 235 235 234 234 233 233 232 232 231 231 231 231 232 232 232 231 231 231 231 231 232 233 234 235 235 236 236 237 238 238 239 239 239 240 240 240 241 242 242 243 243 243 243 244 245 245 245 245 245 245 245 245 245 245 245 245 245 245 245
231 231 231 231 232 232 233 233 233 232 231 229 228 227 228 229 229 230 232 233 234 234 234 234 234 234 234 235 234 234 234 233 233 233 233 233 233 233 233 234 234 234 234 234 233 233 234 234 235 236 237 237 237 237 238 238 239 239 239 240 240 240 241 241 242 243 243 243 243 244 244 245 245 246 246 246 246 246 245 245 245 244 244 244 244 244
230 231 230 231 231 232 232 233 232 232 231 229 228 227 226 226 225 226 229 232 233 234 233 233 233 234 234 234 234 234 234 234 234 234 234 234 234 234 235 235 235 235 235 235 235 236 236 236 236 237 238 238 238 238 238 239 239 239 239 240 240 241 242 243 244 244 244 244 245 245 246 246 247 247 247 247 247 246 246 246 245 244 244 244 244 244
229 229 229 230 230 231 231 231 232 232 231 229 228 227 226 225 225 225 227 229 231 232 232 232 233 233 234 234 235 235 235 235 235 235 235 235 235 235 235 235 235 235 235 235 235 236 236 236 236 237 237 238 238 238 238 238 239 239 239 239 240 241 242 243 245 246 246 247 247 247 248 248 248 248 248 248 248 247 247 246 246 245 244 244 244 244
228 228 228 228 229 229 229 230 230 230 230 228 227 226 226 226 226 226 227 228 229 231 231 231 232 233 233 234 234 235 235 235 235 235 235 235 235 235 235 235 235 235 235 235 235 235 236 236 236 236 237 237 237 238 238 238 238 238 238 239 239 239 240 240 241 242 242 244 244 245 245 245 246 246 246 247 247 247 247 247 246 246 245 245 245 245
227 227 227 227 227 227 228 229 229 229 229 227 226 225 225 225 225 225 226 227 229 230 231 232 232 232 233 234 234 234 234 234 235 235 235 236 236 236 236 236 237 237 235 235 235 235 236 236 237 237 237 237 237 238 238 238 238 238 238 238 238 238 238 236 235 235 234 235 236 238 238 239 239 240 241 242 243 244 245 246 246 246 246 246 246 247
227 227 226 226 225 225 224 225 226 228 228 227 225 224 224 224 223 224 225 227 228 230 232 233 233 233 233 233 233 234 234 234 234 234 235 236 236 237 237 237 237 237 236 236 237 237 237 237 238 238 238 238 238 238 238 238 238 237 237 237 237 237 237 236 234 232 231 231 232 233 234 234 235 235 236 237 238 239 240 242 243 245 246 247 247 247
227 226 226 225 224 223 222 222 223 225 226 226 225 224 223 222 222 223 225 226 228 230 232 232 232 232 233 233 233 234 234 234 234 234 234 235 236 236 236 237 237 238 238 238 238 237 237 237 238 238 238 239 239 239 238 238 238 237 237 237 236 236 236 236 236 235 234 232 232 232 233 234 234 235 235 235 235 235 236 237 239 240 242 244 246 247
227 226 226 225 224 223 221 221 222 223 224 225 225 224 222 221 222 224 225 227 229 230 230 230 231 231 232 232 232 233 233 233 234 234 234 234 234 235 235 236 237 238 238 239 239 238 238 238 238 238 238 239 239 239 239 238 238 238 237 237 237 236 236 236 236 236 236 236 235 234 233 234 234 235 235 235 235 235 235 235 236 237 239 241 243 245
228 227 226 225 224 222 221 220 219 220 221 223 223 223 222 221 222 223 226 228 229 229 228 228 229 230 230 230 231 231 232 232 233 233 233 233 233 233 234 234 235 236 237 238 240 240 240 240 239 239 239 239 239 239 239 239 238 238 238 237 237 237 237 237 237 237 237 238 237 237 236 236 236 236 236 236 236 237 237 237 237 238 239 240 242 243
227 227 226 225 224 223 221 220 219 218 218 219 220 220 220 220 221 222 224 226 228 229 228 228 228 229 229 229 230 230 231 231 232 232 233 232 232 232 233 233 233 234 235 236 238 240 241 241 241 241 241 240 240 239 239 239 239 239 239 238 238 238 238 238 238 238 238 238 239 239 239 239 239 239 239 240 240 240 240 240 240 241 241 242 242 243
226 226 226 227 226 224 222 220 218 216 216 215 216 217 218 218 219 220 222 225 227 228 228 228 228 228 228 229 230 230 231 231 231 232 231 231 232 232 233 233 233 233 234 235 237 238 240 241 241 242 242 241 241 240 240 240 240 240 240 239 239 239 239 239 239 239 239 239 239 240 240 241 241 241 242 242 243 243 243 244 244 245 245 245 244 244
221 220 221 225 227 227 225 222 219 216 214 213 212 213 214 214 216 218 220 223 225 227 228 228 228 228 228 229 230 230 231 231 231 231 231 232 232 233 233 233 233 234 235 235 236 237 238 239 240 241 241 241 241 241 241 241 241 241 241 241 240 240 240 240 240 240 240 240 241 241 241 242 242 242 243 243 244 244 245 245 246 246 246 246 246 245
214 210 207 211 219 225 227 224 221 217 214 211 210 210 211 213 214 216 219 221 224 226 227 227 227 227 227 228 229 229 230 230 230 231 231 232 233 233 234 234 234 234 235 235 236 237 238 239 239 240 240 241 241 241 241 241 241 241 241 241 242 242 241 241 241 241 241 241 242 242 242 242 243 243 243 244 244 244 245 245 246 246 247 247 247 247
206 200 196 195 203 214 221 223 221 218 215 211 209 210 211 213 214 216 218 221 223 224 225 226 226 227 227 226 227 228 229 229 230 230 231 232 232 233 233 234 234 234 235 235 236 236 237 238 239 239 240 240 241 241 241 241 241 241 241 242 242 242 243 243 243 243 243 243 243 243 243 243 243 244 244 244 244 245 245 245 246 246 247 247 247 247
199 195 192 189 193 202 211 216 219 219 216 212 211 211 212 214 215 217 219 221 222 223 224 225 227 228 228 227 226 227 227 228 228 229 230 230 231 232 233 233 233 234 234 235 235 236 237 237 238 239 239 240 240 240 240 240 241 241 241 242 242 243 243 243 243 243 244 244 244 244 244 244 244 244 245 245 245 245 246 246 246 246 247 247 247 248
195 193 192 190 190 195 201 207 212 215 215 214 213 212 214 215 217 219 221 223 224 225 226 226 228 229 229 228 227 226 226 226 226 227 228 228 229 230 231 232 232 233 234 234 235 236 236 237 238 238 239 239 240 240 240 241 241 241 241 242 242 243 243 244 244 244 244 244 244 244 244 245 245 245 245 245 246 246 246 246 246 247 247 247 248 248
193 192 192 191 191 193 196 198 201 205 210 213 214 214 215 217 219 221 223 225 226 227 227 228 229 231 231 230 228 228 228 227 227 227 228 228 229 230 231 231 231 232 233 234 235 235 236 237 237 238 238 239 240 240 240 241 241 241 242 242 243 243 244 244 244 244 244 244 244 244 245 245 245 245 245 246 246 246 246 246 247 247 247 248 248 249
194 193 193 191 190 191 192 192 192 195 201 207 211 213 215 217 220 221 223 225 226 225 225 226 229 231 233 232 232 231 231 231 231 230 230 230 231 232 232 232 232 232 233 233 234 235 236 237 237 238 238 239 240 240 241 241 241 242 242 243 243 243 244 244 244 244 244 244 244 244 245 245 245 245 246 246 246 246 247 247 247 247 248 248 249 249
196 195 194 191 189 188 188 187 187 189 195 201 205 207 210 213 215 218 219 221 221 221 221 222 226 230 234 235 235 235 235 234 234 234 234 234 234 235 235 234 234 233 234 234 235 236 236 237 238 238 239 239 240 240 241 241 241 242 242 242 243 243 243 244 244 244 244 244 244 244 245 245 245 246 246 246 246 247 247 247 248 248 248 249 249 250
199 198 197 193 190 187 185 185 185 188 193 198 201 202 202 204 206 209 211 213 214 215 216 219 223 227 231 233 234 235 236 236 236 237 236 236 237 237 237 237 236 236 236 235 236 237 238 238 238 239 239 239 240 240 241 241 241 241 241 242 242 242 243 243 243 243 243 244 244 244 245 245 245 246 246 246 247 247 248 248 248 249 249 250 250 251
203 202 200 197 194 191 189 187 187 189 192 197 200 200 199 198 199 201 204 206 207 209 212 215 218 221 223 226 228 231 233 234 236 237 237 237 237 238 238 237 237 237 237 237 237 237 238 238 239 239 239 239 239 240 240 240 240 240 240 240 241 241 241 242 242 242 243 243 243 244 244 245 245 246 246 247 247 248 248 249 249 250 250 251 251 252
207 206 205 203 200 198 196 194 192 192 193 196 199 200 198 197 198 200 203 203 203 204 208 211 213 214 214 216 219 223 227 231 233 234 235 235 235 236 236 236 236 236 236 236 236 237 237 237 237 237 237 238 238 238 238 238 238 239 239 239 239 239 240 240 241 241 242 242 243 243 244 245 245 246 246 247 247 248 249 249 250 250 251 251 252 252
211 210 209 208 207 206 204 202 199 197 195 196 197 199 198 198 199 201 203 202 201 202 205 207 209 210 211 213 215 219 224 227 229 230 230 231 232 232 233 233 233 234 234 234 235 235 235 235 235 235 235 235 236 236 236 236 236 237 237 237 237 238 239 239 240 240 241 242 242 243 244 244 245 246 246 247 248 248 249 250 250 251 251 252 252 253
213 213 213 213 212 212 210 208 206 202 199 197 197 198 199 199 199 201 203 203 203 203 204 205 206 209 212 215 218 220 223 224 224 223 224 225 226 227 228 229 230 230 230 231 231 232 232 233 233 233 233 234 234 234 235 235 235 235 235 236 236 237 238 238 239 240 240 241 242 243 243 244 244 245 246 247 248 248 249 250 251 251 252 252 253 253
214 215 215 216 216 215 214 213 210 208 204 201 199 199 199 199 199 200 202 204 205 205 204 204 204 207 212 215 218 219 219 218 216 214 214 215 218 220 222 224 225 226 226 227 228 228 229 229 230 231 231 231 232 233 233 233 233 234 234 235 236 236 237 237 238 239 240 241 241 242 243 243 244 245 246 247 248 249 249 250 251 251 252 252 253 253
214 215 216 217 217 217 216 215 214 212 209 206 203 202 201 201 200 200 200 203 205 205 204 203 204 206 210 212 213 213 211 208 205 203 203 204 207 209 212 214 216 219 220 222 223 224 225 226 227 228 228 229 229 230 230 231 231 232 233 234 234 234 235 237 238 238 239 240 241 242 243 244 244 245 246 247 248 249 250 251 252 252 253 253 254 254
212 213 215 216 218 218 217 217 216 215 213 210 208 206 205 204 203 201 200 200 200 201 201 202 204 206 208 208 207 205 202 199 197 196 197 199 200 202 204 206 208 211 214 216 218 220 221 222 224 225 226 226 227 228 228 229 230 230 231 232 233 234 235 236 237 238 239 241 242 243 244 245 245 246 247 248 249 250 251 252 253 254 254 255 255 255
209 211 212 214 216 218 218 217 217 216 215 213 211 209 208 208 207 205 203 201 199 198 199 201 203 205 205 204 201 199 197 195 194 195 196 198 199 200 202 205 208 210 213 215 216 217 218 220 222 224 226 226 227 228 228 228 229 230 231 232 233 234 235 236 238 239 241 242 244 245 246 247 247 248 249 250 251 251 252 253 254 254 255 255 256 256
207 208 210 211 213 215 216 217 217 217 216 214 213 211 211 211 210 210 208 206 203 200 198 199 200 202 202 201 199 198 197 196 196 197 198 199 199 201 204 207 211 213 215 217 217 218 218 219 220 222 225 227 229 230 230 230 230 230 231 232 234 235 236 237 239 240 242 244 245 247 248 249 250 250 251 251 252 252 253 253 254 254 255 255 256 256
207 208 209 210 211 212 214 215 216 216 216 215 214 213 212 212 212 212 212 211 210 207 202 199 198 198 199 199 200 200 200 200 201 201 202 201 201 202 205 209 213 216 218 220 221 221 221 220 220 221 223 225 228 231 233 233 233 233 234 234 235 237 238 239 241 242 244 245 247 248 249 251 251 252 252 252 252 252 252 253 253 253 254 254 255 256
207 208 209 210 210 211 212 213 214 214 215 214 214 213 213 213 213 213 213 214 213 212 209 204 201 199 199 200 202 204 205 207 207 208 208 207 207 207 208 212 216 219 222 224 225 225 225 224 222 222 222 223 225 228 232 234 235 236 237 237 238 239 241 242 243 244 245 246 248 249 250 251 251 252 252 252 252 252 253 253 253 253 254 254 255 255
208 209 210 210 210 211 211 212 213 213 214 214 214 214 213 213 214 214 214 215 215 215 214 212 209 207 207 208 209 211 214 215 217 217 217 217 216 216 217 219 221 224 226 227 228 228 228 227 226 225 224 224 225 227 229 232 234 236 237 239 240 240 241 242 243 244 245 246 248 249 249 249 250 250 251 251 252 252 253 253 253 254 254 255 256 256
209 210 210 211 211 211 211 212 212 213 214 214 214 214 214 214 215 215 215 215 215 216 216 216 216 216 217 218 219 220 222 223 224 225 225 225 225 225 225 226 227 229 230 230 231 231 230 229 229 228 227 227 227 228 230 232 234 236 237 239 240 241 242 243 244 244 244 245 246 246 246 247 247 248 249 250 251 252 253 253 254 255 256 257 257 258
209 210 210 211 211 211 211 211 212 213 214 214 215 215 215 216 216 216 216 216 216 216 216 217 218 219 220 222 223 224 225 225 226 227 228 229 229 229 230 230 231 231 232 232 232 232 232 232 231 231 230 230 230 231 232 233 235 236 238 239 240 241 243 243 244 244 244 244 245 245 245 245 246 247 249 250 251 252 253 255 256 257 258 259 259 260
210 210 210 211 211 211 211 211 212 212 213 214 215 215 216 216 216 217 217 217 217 217 217 217 218 219 220 221 222 223 224 225 226 227 228 229 230 231 231 231 232 232 232 233 233 233 233 234 234 233 233 232 232 233 234 235 236 237 238 240 241 242 243 244 244 244 245 245 245 246 246 247 248 249 250 251 253 254 255 256 258 259 259 260 260 261
210 210 210 210 211 211 211 211 211 212 213 214 214 215 215 216 216 216 216 216 216 217 217 217 218 219 220 221 223 224 225 226 227 228 229 230 231 231 232 232 232 233 233 233 234 234 234 235 235 235 235 234 234 235 235 236 237 238 240 241 242 243 244 245 246 246 246 247 247 248 248 249 250 251 252 253 255 256 257 258 258 259 260 260 260 260
212 211 211 211 211 211 211 211 211 211 212 213 213 214 215 215 215 215 215 215 216 216 217 218 219 221 222 223 224 225 226 227 228 229 229 230 231 231 232 232 233 233 233 234 234 235 235 235 235 236 236 235 236 236 237 238 239 240 241 242 243 244 245 246 247 247 248 248 249 250 250 251 252 253 254 255 256 257 257 258 258 259 259 259 259 260
213 212 212 211 211 211 211 211 211 211 211 211 212 213 213 214 215 215 216 216 216 217 217 219 220 222 223 225 225 226 227 227 228 229 229 230 230 231 231 232 232 233 233 234 234 234 235 235 235 235 235 235 236 237 238 239 239 240 242 243 244 245 246 247 248 248 249 250 250 251 252 252 253 254 254 255 256 256 257 257 257 258 258 258 258 259
214 214 213 213 212 212 212 211 211 211 211 211 211 211 212 213 214 215 215 216 216 217 218 219 220 222 224 225 226 227 227 227 228 228 229 229 230 230 231 231 232 232 232 233 233 233 234 234 234 234 234 234 235 236 237 239 240 241 242 243 244 245 246 247 248 249 250 250 251 252 253 253 254 254 254 255 255 255 256 256 256 256 257 257 257 258
Height
5551 5554 5558 5563 5568 5573 5578 5581 5582 5584 5587 5589 5592 5594 5597 5601 5605 5608 5611 5615 5618 5621 5624 5627 5630 5633 5635 5638 5640 5643 5645 5648 5651 5654 5657 5660 5662 5665 5668 5671 5674 5676 5679 5682 5685 5688 5691 5695 5697 5698 5699 5701 5702 5704 5706 5708 5710 5712 5715 5716 5718 5720 5721 5723 5724 5725 5727 5729 5731 5732 5733 5735 5737 5739 5740 5742 5744 5745 5746 5748 5749 5750 5752 5755 5757 5759
5545 5549 5554 5559 5563 5567 5571 5575 5578 5580 5582 5585 5588 5590 5593 5597 5600 5604 5607 5610 5613 5617 5620 5623 5626 5629 5631 5634 5636 5638 5641 5644 5647 5650 5652 5655 5658 5661 5664 5667 5670 5672 5675 5678 5680 5683 5686 5690 5693 5694 5695 5696 5698 5701 5705 5705 5706 5708 5710 5712 5714 5715 5716 5718 5720 5721 5723 5725 5727 5729 5730 5732 5734 5735 5737 5739 5741 5742 5743 5744 5746 5747 5749 5751 5754 5756
5540 5544 5549 5553 5557 5561 5565 5569 5573 5576 5578 5581 5584 5586 5589 5592 5596 5599 5603 5606 5609 5612 5615 5619 5622 5625 5628 5630 5632 5634 5637 5640 5642 5645 5648 5650 5654 5657 5660 5663 5666 5668 5671 5673 5676 5679 5682 5686 5688 5689 5690 5692 5695 5699 5700 5699 5700 5704 5705 5706 5709 5712 5713 5715 5717 5719 5720 5721 5723 5724 5726 5728 5730 5732 5734 5735 5737 5738 5740 5741 5743 5745 5746 5749 5751 5753
5535 5540 5544 5547 5551 5556 5560 5563 5568 5572 5575 5578 5580 5583 5585 5588 5591 5595 5598 5601 5604 5607 5611 5614 5618 5620 5623 5625 5627 5630 5634 5636 5638 5640 5643 5646 5649 5652 5655 5659 5661 5664 5666 5669 5672 5675 5679 5681 5682 5684 5686 5689 5692 5694 5694 5695 5697 5699 5700 5702 5705 5707 5709 5711 5713 5715 5716 5718 5719 5720 5722 5724 5726 5728 5730 5732 5733 5735 5736 5738 5740 5741 5743 5745 5747 5749
5530 5535 5538 5542 5546 5551 5555 5558 5563 5568 5572 5575 5577 5579 5581 5584 5587 5590 5594 5597 5600 5603 5606 5609 5612 5615 5617 5620 5624 5627 5630 5632 5634 5637 5640 5642 5645 5648 5651 5655 5657 5660 5662 5665 5668 5672 5674 5676 5677 5680 5683 5685 5687 5688 5688 5690 5692 5694 5696 5698 5700 5703 5705 5706 5708 5709 5711 5713 5715 5716 5718 5720 5722 5724 5726 5728 5730 5731 5733 5735 5736 5738 5740 5742 5744 5745
5525 5529 5532 5537 5542 5546 5549 5553 5558 5563 5569 5572 5574 5575 5577 5580 5582 5586 5590 5593 5596 5599 5601 5604 5607 5610 5613 5616 5620 5623 5625 5627 5630 5633 5635 5638 5641 5644 5647 5650 5653 5656 5659 5661 5664 5667 5669 5671 5673 5675 5679 5680 5681 5682 5684 5686 5688 5690 5692 5695 5697 5699 5701 5702 5703 5705 5707 5709 5711 5712 5714 5716 5718 5720 5722 5724 5726 5728 5730 5731 5733 5735 5736 5738 5740 5742
5520 5524 5528 5533 5537 5540 5543 5549 5553 5559 5564 5567 5569 5571 5572 5575 5579 5582 5585 5588 5591 5594 5596 5599 5602 5605 5609 5613 5615 5618 5620 5622 5625 5628 5631 5634 5637 5640 5643 5646 5649 5652 5654 5657 5660 5663 5665 5667 5669 5671 5673 5674 5675 5677 5680 5682 5684 5686 5689 5691 5694 5695 5697 5698 5700 5701 5703 5705 5707 5708 5710 5712 5714 5716 5718 5720 5722 5724 5725 5727 5729 5731 5732 5734 5736 5738
5515 5519 5523 5528 5531 5534 5538 5544 5549 5554 5559 5562 5565 5567 5569 5571 5575 5577 5580 5583 5586 5589 5591 5595 5598 5601 5605 5608 5611 5613 5615 5618 5621 5624 5626 5630 5633 5636 5639 5642 5645 5647 5650 5653 5655 5658 5660 5661 5664 5666 5667 5669 5671 5673 5675 5678 5680 5683 5685 5688 5690 5691 5693 5694 5696 5698 5700 5701 5703 5704 5706 5708 5710 5712 5714 5716 5718 5719 5721 5723 5725 5727 5729 5730 5732 5734
5510 5515 5518 5522 5525 5529 5533 5538 5543 5548 5553 5558 5561 5563 5565 5567 5570 5573 5576 5579 5582 5584 5587 5590 5593 5597 5600 5603 5605 5609 5611 5615 5617 5620 5622 5625 5628 5631 5635 5637 5640 5643 5646 5649 5651 5653 5655 5656 5658 5660 5662 5665 5667 5669 5672 5674 5677 5679 5682 5684 5686 5688 5689 5690 5692 5694 5695 5697 5699 5700 5702 5704 5706 5708 5710 5712 5713 5715 5717 5719 5721 5723 5724 5726 5728 5730
5506 5510 5513 5517 5520 5524 5528 5532 5538 5543 5548 5553 5556 5558 5560 5561 5564 5568 5572 5575 5576 5579 5582 5585 5588 5592 5595 5598 5601 5604 5606 5610 5614 5616 5618 5621 5624 5627 5630 5633 5636 5639 5642 5645 5647 5649 5650 5652 5654 5656 5658 5661 5663 5665 5668 5670 5672 5675 5677 5679 5681 5683 5684 5686 5688 5689 5691 5693 5695 5696 5698 5700 5702 5704 5705 5707 5709 5711 5713 5714 5716 5718 5720 5722 5724 5725
5501 5505 5508 5512 5515 5519 5523 5527 5532 5538 5543 5547 5550 5553 5556 5558 5560 5562 5565 5568 5570 5573 5577 5580 5583 5586 5590 5594 5597 5600 5602 5606 5609 5611 5614 5617 5620 5623 5626 5629 5632 5635 5638 5640 5643 5645 5646 5649 5650 5652 5655 5657 5659 5661 5664 5666 5668 5670 5673 5675 5677 5678 5680 5681 5683 5685 5687 5689 5691 5692 5694 5696 5697 5699 5701 5703 5705 5706 5708 5710 5712 5714 5716 5718 5720 5721
5495 5499 5503 5506 5510 5514 5518 5522 5527 5533 5538 5542 5546 5550 5552 5555 5557 5559 5560 5562 5564 5567 5571 5575 5578 5581 5585 5589 5592 5595 5598 5602 5605 5607 5610 5613 5616 5619 5621 5624 5627 5630 5633 5635 5638 5640 5642 5644 5646 5649 5652 5654 5655 5658 5660 5662 5664 5666 5668 5670 5673 5674 5676 5677 5679 5681 5683 5685 5687 5688 5690 5691 5693 5695 5697 5698 5700 5702 5704 5706 5708 5710 5711 5713 5715 5717
5490 5494 5498 5501 5505 5509 5513 5517 5521 5527 5532 5536 5540 5544 5547 5550 5553 5556 5557 5557 5559 5562 5566 5570 5573 5577 5581 5584 5587 5591 5595 5598 5601 5603 5606 5609 5612 5615 5617 5620 5623 5625 5628 5631 5633 5635 5637 5640 5642 5645 5647 5649 5651 5654 5657 5659 5661 5662 5664 5666 5669 5670 5671 5673 5675 5677 5679 5681 5683 5684 5686 5687 5689 5691 5692 5694 5696 5698 5700 5702 5704 5705 5707 5709 5711 5713
5485 5489 5493 5497 5501 5504 5508 5512 5516 5521 5527 5530 5534 5537 5541 5545 5550 5553 5554 5555 5555 5557 5561 5565 5569 5573 5576 5580 5583 5587 5590 5594 5597 5600 5602 5605 5607 5610 5612 5615 5618 5621 5623 5626 5628 5630 5633 5635 5638 5641 5643 5645 5648 5650 5653 5655 5657 5659 5661 5663 5665 5666 5667 5669 5671 5673 5675 5677 5679 5680 5682 5684 5685 5686 5688 5690 5691 5693 5695 5697 5699 5701 5703 5705 5707 5708
5480 5484 5489 5492 5495 5499 5503 5507 5512 5516 5521 5525 5529 5533 5538 5542 5546 5549 5549 5550 5550 5552 5555 5560 5564 5568 5571 5575 5578 5581 5585 5589 5592 5595 5598 5601 5603 5605 5608 5611 5614 5616 5619 5622 5624 5625 5628 5631 5634 5637 5639 5641 5644 5646 5648 5651 5653 5655 5657 5659 5661 5663 5665 5666 5668 5670 5671 5673 5675 5676 5678 5679 5681 5682 5684 5685 5687 5689 5691 5693 5695 5697 5699 5700 5702 5704
5475 5479 5484 5486 5490 5493 5497 5502 5506 5511 5515 5520 5525 5529 5533 5537 5541 5543 5543 5544 5545 5546 5550 5555 5559 5563 5567 5570 5573 5577 5580 5584 5587 5590 5593 5596 5599 5601 5605 5608 5610 5613 5615 5618 5620 5622 5624 5627 5630 5632 5634 5637 5639 5642 5644 5647 5649 5651 5653 5655 5657 5660 5662 5664 5666 5668 5670 5671 5672 5673 5675 5675 5676 5678 5679 5681 5682 5684 5686 5688 5690 5692 5694 5696 5698 5700
5471 5475 5479 5482 5485 5490 5496 5501 5503 5505 5510 5514 5519 5523 5527 5531 5535 5538 5540 5540 5540 5541 5545 5550 5554 5558 5562 5565 5569 5572 5575 5579 5582 5585 5588 5592 5595 5597 5600 5603 5605 5608 5611 5614 5616 5618 5621 5623 5625 5627 5630 5632 5635 5637 5640 5642 5645 5647 5649 5651 5653 5655 5657 5660 5663 5665 5667 5668 5669 5670 5670 5671 5673 5674 5675 5677 5678 5680 5682 5684 5685 5687 5690 5691 5694 5695
5468 5471 5474 5478 5481 5486 5492 5495 5498 5501 5504 5509 5514 5518 5522 5527 5532 5535 5536 5536 5536 5538 5541 5545 5549 5553 5557 5561 5564 5568 5570 5574 5577 5580 5584 5587 5590 5592 5595 5598 5600 5603 5606 5609 5612 5614 5617 5619 5621 5623 5625 5628 5630 5632 5635 5637 5640 5642 5644 5646 5649 5650 5653 5655 5657 5660 5662 5663 5665 5666 5667 5668 5669 5670 5671 5673 5674 5676 5678 5680 5681 5683 5685 5687 5689 5691
5465 5468 5470 5473 5477 5481 5485 5488 5492 5495 5500 5504 5508 5513 5519 5526 5529 5530 5532 5532 5533 5534 5537 5540 5544 5549 5553 5557 5560 5562 5566 5570 5573 5577 5580 5583 5585 5587 5590 5594 5596 5599 5601 5604 5606 5608 5611 5614 5616 5619 5621 5623 5625 5627 5630 5632 5635 5637 5640 5642 5644 5646 5648 5650 5652 5654 5656 5658 5660 5661 5663 5665 5666 5667 5668 5670 5671 5673 5674 5676 5677 5679 5681 5683 5685 5687
5461 5464 5467 5470 5474 5478 5482 5486 5490 5493 5497 5500 5504 5510 5516 5522 5526 5528 5529 5529 5528 5530 5533 5536 5540 5545 5548 5552 5555 5558 5562 5566 5569 5572 5576 5579 5581 5584 5587 5590 5591 5593 5595 5597 5599 5602 5606 5609 5612 5614 5616 5618 5620 5622 5625 5627 5630 5632 5635 5637 5639 5641 5643 5645 5647 5649 5651 5653 5655 5656 5658 5660 5662 5663 5665 5666 5668 5669 5671 5672 5674 5675 5677 5679 5680 5682
5457 5460 5464 5467 5471 5475 5479 5482 5485 5490 5494 5498 5502 5507 5511 5517 5521 5524 5525 5525 5525 5526 5530 5533 5536 5540 5543 5548 5551 5554 5557 5561 5564 5567 5570 5574 5577 5580 5583 5585 5587 5589 5590 5593 5595 5597 5601 5604 5606 5609 5611 5613 5615 5618 5620 5623 5625 5627 5630 5632 5634 5636 5638 5640 5642 5644 5646 5648 5650 5651 5653 5655 5656 5658 5660 5661 5663 5665 5666 5668 5669 5671 5673 5675 5676 5678
5454 5458 5461 5465 5468 5472 5476 5479 5483 5487 5492 5496 5499 5503 5506 5512 5517 5520 5522 5522 5521 5522 5525 5529 5532 5535 5539 5544 5547 5549 5553 5557 5560 5561 5564 5569 5572 5575 5576 5579 5581 5584 5586 5589 5591 5594 5597 5599 5601 5603 5605 5608 5610 5613 5615 5618 5620 5623 5625 5628 5630 5632 5634 5636 5638 5640 5641 5643 5644 5646 5648 5650 5651 5653 5655 5656 5658 5660 5661 5663 5664 5666 5668 5670 5672 5674
5452 5455 5458 5462 5465 5469 5473 5477 5481 5485 5489 5493 5496 5499 5501 5506 5511 5515 5517 5517 5517 5518 5521 5524 5528 5532 5537 5541 5543 5545 5548 5552 5555 5556 5560 5564 5567 5568 5570 5573 5576 5579 5582 5585 5587 5590 5593 5594 5595 5597 5600 5602 5605 5608 5611 5613 5616 5618 5620 5623 5625 5627 5629 5631 5633 5635 5636 5638 5639 5641 5643 5645 5646 5648 5650 5651 5653 5655 5657 5658 5660 5662 5663 5665 5667 5669
5450 5453 5458 5461 5464 5467 5470 5475 5478 5482 5485 5489 5493 5496 5499 5502 5505 5509 5511 5512 5513 5515 5518 5523 5527 5531 5535 5537 5538 5540 5544 5547 5549 5552 5555 5559 5560 5562 5565 5569 5572 5574 5576 5579 5583 5586 5588 5589 5590 5592 5595 5597 5600 5603 5606 5609 5611 5614 5616 5618 5620 5623 5625 5626 5628 5630 5631 5633 5635 5636 5638 5640 5642 5643 5645 5646 5648 5650 5651 5653 5655 5657 5659 5660 5662 5664
5447 5452 5457 5462 5465 5468 5469 5472 5475 5478 5481 5485 5490 5494 5497 5500 5503 5505 5506 5508 5511 5514 5517 5521 5525 5527 5529 5530 5532 5536 5539 5541 5545 5548 5551 5553 5555 5556 5560 5563 5566 5569 5571 5575 5578 5581 5583 5584 5585 5587 5590 5593 5595 5598 5601 5604 5606 5609 5611 5613 5615 5618 5620 5621 5623 5625 5626 5628 5630 5632 5633 5635 5637 5638 5640 5641 5643 5645 5647 5649 5650 5652 5654 5655 5657 5659
5445 5450 5454 5458 5464 5468 5470 5470 5472 5475 5479 5482 5486 5490 5493 5496 5500 5503 5505 5507 5509 5511 5514 5518 5520 5521 5522 5525 5529 5532 5535 5537 5540 5544 5546 5548 5550 5552 5555 5558 5561 5564 5566 5570 5574 5577 5578 5579 5580 5582 5586 5589 5591 5593 5596 5599 5602 5604 5606 5608 5610 5612 5614 5616 5618 5620 5621 5623 5625 5626 5628 5630 5631 5633 5635 5636 5638 5640 5642 5644 5646 5647 5649 5650 5652 5654
5442 5447 5450 5453 5458 5464 5468 5469 5470 5472 5476 5479 5481 5484 5487 5491 5495 5500 5503 5504 5505 5507 5509 5514 5516 5517 5518 5522 5525 5528 5530 5533 5536 5539 5541 5543 5545 5547 5550 5553 5556 5560 5563 5566 5569 5571 5573 5574 5575 5578 5582 5584 5586 5589 5592 5595 5597 5599 5601 5604 5605 5607 5609 5611 5612 5614 5616 5618 5620 5621 5623 5624 5626 5628 5629 5631 5633 5635 5637 5639 5641 5643 5644 5646 5647 5649
5439 5443 5446 5448 5452 5456 5461 5465 5469 5471 5474 5476 5479 5481 5484 5488 5492 5495 5498 5499 5502 5505 5507 5510 5512 5513 5515 5518 5521 5523 5525 5528 5531 5533 5535 5538 5541 5543 5545 5548 5552 5556 5559 5561 5564 5565 5567 5569 5571 5574 5578 5580 5582 5585 5588 5590 5593 5595 5597 5599 5601 5602 5604 5605 5607 5609 5611 5612 5614 5616 5617 5619 5620 5622 5624 5626 5629 5631 5633 5635 5636 5638 5640 5641 5642 5644
5436 5440 5443 5445 5448 5451 5455 5460 5464 5469 5472 5475 5477 5480 5483 5487 5490 5493 5495 5498 5501 5504 5506 5507 5507 5509 5511 5514 5516 5518 5521 5525 5527 5528 5530 5535 5537 5539 5540 5543 5548 5552 5555 5556 5558 5561 5564 5565 5567 5570 5573 5575 5578 5580 5584 5586 5588 5590 5593 5595 5596 5598 5599 5600 5602 5604 5605 5607 5609 5610 5612 5613 5615 5617 5619 5621 5624 5626 5628 5630 5632 5633 5635 5636 5638 5639
5433 5437 5440 5443 5446 5449 5452 5455 5459 5464 5469 5473 5475 5478 5482 5485 5489 5492 5495 5499 5501 5503 5504 5504 5504 5505 5507 5510 5513 5515 5518 5520 5522 5524 5527 5532 5534 5534 5535 5540 5545 5548 5550 5551 5554 5556 5559 5560 5562 5565 5569 5571 5574 5576 5579 5581 5584 5586 5588 5590 5591 5593 5594 5595 5597 5599 5600 5602 5603 5605 5606 5608 5610 5612 5615 5617 5619 5621 5623 5625 5627 5628 5630 5632 5633 5635
5430 5433 5437 5440 5443 5446 5449 5451 5454 5458 5463 5468 5471 5475 5480 5483 5487 5490 5495 5499 5500 5501 5501 5502 5502 5503 5505 5506 5509 5511 5513 5515 5517 5520 5525 5529 5530 5530 5531 5537 5541 5544 5545 5547 5550 5552 5554 5555 5558 5562 5565 5568 5570 5572 5575 5577 5579 5581 5583 5585 5586 5588 5589 5590 5592 5593 5595 5596 5598 5600 5601 5603 5605 5607 5610 5612 5614 5616 5618 5620 5622 5624 5625 5627 5629 5630
5427 5430 5433 5437 5440 5443 5445 5448 5451 5454 5458 5463 5467 5470 5475 5479 5483 5487 5492 5496 5497 5498 5498 5499 5500 5501 5502 5503 5505 5507 5509 5511 5514 5518 5522 5526 5526 5526 5528 5534 5538 5539 5540 5544 5546 5548 5549 5551 5555 5559 5562 5564 5566 5568 5570 5572 5575 5576 5578 5580 5581 5582 5584 5585 5586 5588 5590 5591 5593 5595 5596 5598 5600 5603 5605 5607 5610 5611 5614 5615 5617 5619 5621 5623 5625 5626
5424 5427 5430 5434 5437 5440 5442 5445 5448 5451 5455 5459 5463 5466 5470 5474 5478 5483 5487 5491 5493 5494 5495 5497 5498 5498 5498 5499 5501 5503 5506 5509 5512 5515 5519 5522 5522 5522 5525 5530 5533 5535 5536 5540 5542 5544 5545 5548 5551 5555 5558 5560 5562 5563 5565 5568 5570 5571 5573 5575 5576 5577 5578 5580 5581 5583 5585 5586 5588 5590 5592 5594 5596 5598 5600 5603 5605 5607 5609 5611 5613 5615 5617 5619 5620 5621
5422 5425 5428 5431 5434 5437 5440 5443 5445 5448 5451 5456 5460 5463 5466 5470 5474 5478 5482 5485 5488 5490 5492 5493 5494 5495 5495 5496 5498 5501 5504 5507 5509 5512 5515 5517 5518 5518 5520 5525 5528 5530 5531 5535 5538 5540 5542 5544 5547 5550 5554 5555 5557 5559 5561 5563 5565 5566 5568 5570 5571 5572 5573 5575 5577 5578 5580 5581 5583 5585 5588 5590 5592 5594 5596 5598 5600 5603 5605 5607 5609 5610 5612 5614 5615 5617
5420 5423 5425 5428 5431 5434 5437 5440 5443 5446 5449 5453 5457 5460 5463 5466 5470 5473 5477 5480 5483 5486 5488 5489 5491 5493 5495 5496 5497 5500 5502 5504 5505 5508 5510 5512 5513 5514 5516 5521 5523 5525 5527 5531 5534 5536 5538 5540 5543 5545 5548 5550 5552 5554 5556 5558 5560 5561 5563 5565 5567 5568 5569 5570 5572 5574 5576 5577 5580 5582 5584 5585 5588 5590 5592 5594 5596 5598 5600 5602 5604 5606 5608 5609 5610 5612
5418 5420 5423 5426 5429 5432 5435 5438 5441 5444 5447 5450 5453 5457 5460 5464 5467 5470 5473 5475 5479 5481 5484 5486 5488 5490 5493 5495 5497 5499 5501 5502 5503 5505 5506 5508 5509 5510 5513 5516 5518 5520 5523 5526 5529 5531 5534 5536 5538 5541 5544 5546 5548 5550 5552 5554 5555 5557 5559 5561 5563 5564 5565 5566 5568 5570 5572 5574 5576 5578 5580 5581 5584 5586 5588 5590 5592 5595 5596 5598 5600 5601 5603 5604 5606 5607
5416 5418 5421 5423 5426 5429 5432 5436 5439 5442 5445 5447 5450 5453 5457 5460 5464 5467 5469 5472 5474 5477 5480 5482 5484 5486 5490 5492 5495 5498 5500 5501 5503 5504 5505 5506 5506 5508 5510 5512 5514 5517 5520 5522 5525 5527 5529 5532 5534 5537 5540 5542 5544 5546 5548 5550 5552 5554 5556 5557 5559 5560 5561 5563 5565 5567 5569 5570 5572 5574 5575 5577 5580 5582 5584 5586 5589 5591 5593 5594 5595 5597 5598 5600 5601 5602
5414 5416 5419 5421 5424 5427 5430 5433 5436 5440 5442 5445 5447 5449 5452 5455 5459 5463 5466 5468 5471 5474 5476 5478 5480 5483 5486 5489 5492 5494 5496 5499 5501 5503 5505 5506 5507 5508 5510 5511 5514 5516 5518 5520 5522 5524 5526 5529 5531 5533 5535 5538 5540 5542 5544 5546 5549 5551 5552 5553 5555 5556 5558 5560 5561 5563 5565 5567 5568 5570 5572 5574 5577 5579 5581 5583 5585 5587 5589 5590 5591 5592 5593 5595 5596 5598
5412 5414 5417 5419 5421 5425 5428 5431 5434 5436 5439 5442 5444 5446 5448 5451 5455 5458 5462 5465 5468 5470 5473 5475 5477 5479 5482 5485 5488 5490 5492 5494 5496 5499 5501 5503 5505 5506 5508 5510 5512 5514 5516 5518 5520 5523 5525 5527 5528 5530 5532 5534 5537 5539 5541 5543 5545 5547 5549 5550 5551 5553 5555 5557 5558 5560 5562 5563 5565 5566 5568 5571 5573 5576 5578 5580 5581 5583 5585 5585 5586 5587 5589 5590 5591 5593
5409 5412 5414 5417 5419 5422 5425 5428 5430 5434 5436 5439 5442 5444 5446 5448 5451 5454 5458 5461 5465 5467 5470 5472 5474 5476 5479 5481 5484 5486 5488 5490 5491 5493 5495 5497 5499 5501 5503 5505 5507 5510 5512 5515 5517 5519 5522 5524 5525 5527 5529 5531 5533 5535 5537 5540 5542 5544 5545 5547 5549 5551 5552 5553 5555 5556 5558 5560 5562 5563 5565 5567 5570 5572 5574 5575 5577 5579 5580 5581 5582 5583 5584 5586 5587 5588
5407 5410 5412 5414 5417 5419 5422 5425 5428 5431 5434 5436 5439 5441 5444 5446 5448 5451 5454 5457 5461 5464 5467 5469 5472 5474 5477 5479 5480 5482 5484 5486 5488 5490 5491 5493 5495 5497 5500 5502 5504 5506 5509 5511 5514 5516 5518 5520 5523 5525 5527 5529 5530 5532 5534 5536 5538 5540 5542 5544 5545 5546 5547 5549 5551 5554 5555 5557 5558 5560 5562 5564 5566 5568 5570 5571 5573 5574 5576 5577 5578 5579 5580 5581 5583 5584
5404 5407 5409 5412 5414 5417 5419 5422 5425 5428 5431 5434 5436 5439 5441 5443 5445 5448 5451 5454 5457 5460 5463 5466 5469 5472 5474 5476 5478 5479 5481 5483 5485 5486 5488 5490 5493 5495 5497 5500 5502 5504 5506 5509 5511 5513 5515 5518 5520 5522 5525 5526 5528 5529 5530 5532 5534 5536 5539 5540 5542 5543 5544 5547 5549 5551 5552 5554 5555 5556 5558 5560 5562 5563 5565 5566 5568 5570 5571 5573 5574 5575 5576 5577 5578 5580
5402 5404 5407 5409 5411 5414 5416 5420 5422 5425 5428 5431 5433 5436 5438 5440 5443 5445 5448 5451 5454 5456 5460 5463 5465 5468 5470 5473 5475 5477 5478 5480 5482 5484 5486 5488 5490 5492 5495 5497 5499 5501 5504 5506 5508 5510 5512 5515 5517 5519 5521 5523 5525 5526 5528 5529 5531 5533 5535 5537 5538 5540 5542 5544 5545 5547 5549 5550 5551 5553 5555 5556 5558 5559 5560 5562 5564 5565 5567 5568 5570 5571 5572 5573 5574 5576
5399 5401 5404 5406 5409 5411 5414 5417 5420 5422 5425 5428 5430 5433 5435 5438 5441 5443 5446 5448 5451 5454 5456 5460 5462 5465 5468 5470 5472 5474 5475 5477 5480 5482 5484 5486 5488 5490 5492 5494 5496 5498 5500 5503 5505 5507 5509 5512 5514 5516 5517 5520 5522 5524 5525 5526 5528 5530 5532 5533 5535 5537 5539 5540 5542 5544 5546 5547 5548 5550 5551 5552 5554 5555 5556 5558 5560 5561 5563 5564 5565 5566 5568 5569 5570 5572
5396 5399 5401 5404 5406 5409 5412 5414 5416 5419 5422 5425 5427 5430 5433 5435 5438 5440 5443 5445 5448 5451 5454 5456 5459 5462 5464 5466 5468 5470 5473 5475 5477 5479 5481 5483 5485 5488 5490 5491 5494 5495 5498 5500 5502 5504 5506 5509 5511 5512 5514 5516 5519 5520 5522 5523 5525 5527 5529 5530 5532 5534 5535 5537 5539 5541 5543 5544 5545 5546 5547 5548 5550 5551 5553 5555 5556 5557 5559 5560 5561 5563 5564 5565 5566 5568
5394 5396 5399 5401 5404 5406 5409 5411 5414 5417 5420 5422 5425 5427 5430 5432 5435 5437 5440 5442 5445 5448 5450 5453 5456 5458 5460 5462 5464 5467 5469 5471 5473 5475 5477 5479 5481 5484 5486 5488 5490 5492 5495 5496 5498 5500 5503 5505 5507 5509 5511 5514 5516 5517 5519 5520 5522 5524 5526 5527 5529 5531 5532 5534 5536 5538 5540 5541 5541 5542 5543 5545 5547 5549 5550 5551 5552 5553 5555 5556 5558 5559 5560 5561 5562 5564
5391 5394 5396 5399 5401 5404 5406 5409 5412 5415 5417 5420 5422 5424 5427 5429 5432 5434 5437 5439 5442 5444 5447 5450 5453 5455 5456 5459 5461 5464 5465 5467 5469 5471 5474 5475 5478 5480 5482 5484 5486 5489 5491 5493 5495 5497 5499 5501 5503 5505 5508 5510 5512 5514 5515 5517 5519 5521 5523 5524 5526 5528 5530 5531 5533 5534 5536 5537 5538 5539 5540 5542 5544 5545 5546 5547 5549 5550 5552 5553 5554 5555 5556 5557 5558 5559
5389 5391 5394 5396 5399 5401 5404 5407 5409 5412 5414 5417 5419 5422 5424 5426 5429 5431 5434 5436 5439 5441 5444 5447 5449 5451 5453 5455 5458 5460 5462 5464 5466 5468 5470 5472 5474 5476 5479 5481 5483 5485 5487 5490 5492 5494 5496 5498 5500 5502 5505 5507 5508 5510 5512 5514 5516 5518 5520 5521 5523 5525 5527 5528 5529 5531 5533 5534 5535 5535 5536 5538 5540 5542 5543 5544 5545 5547 5548 5549 5550 5551 5552 5553 5554 5555
5386 5389 5391 5394 5396 5399 5401 5404 5406 5409 5411 5414 5417 5419 5422 5424 5426 5429 5431 5433 5436 5438 5441 5443 5445 5448 5450 5452 5454 5456 5459 5461 5463 5465 5467 5469 5471 5473 5475 5478 5480 5482 5484 5486 5488 5490 5493 5495 5497 5499 5501 5503 5505 5507 5509 5511 5513 5515 5516 5518 5520 5522 5524 5525 5526 5527 5529 5530 5531 5531 5533 5535 5536 5538 5539 5540 5542 5543 5544 5545 5546 5547 5548 5549 5550 5551
5384 5386 5389 5391 5394 5396 5399 5401 5404 5406 5409 5411 5414 5416 5419 5421 5424 5426 5428 5430 5433 5435 5438 5440 5442 5445 5447 5449 5451 5453 5456 5458 5460 5462 5464 5466 5468 5470 5473 5475 5477 5479 5481 5483 5485 5487 5490 5492 5494 5496 5498 5500 5502 5504 5506 5508 5510 5511 5513 5515 5517 5518 5520 5521 5522 5524 5525 5526 5526 5527 5529 5530 5532 5534 5535 5537 5538 5539 5540 5541 5542 5543 5544 5545 5546 5546
5381 5384 5386 5389 5391 5393 5396 5399 5401 5403 5406 5408 5411 5414 5416 5419 5421 5424 5426 5428 5430 5433 5435 5437 5440 5442 5444 5446 5448 5450 5453 5455 5457 5459 5461 5463 5465 5468 5470 5472 5474 5476 5478 5480 5482 5485 5487 5489 5491 5493 5495 5497 5499 5501 5503 5505 5506 5509 5510 5512 5513 5515 5516 5517 5519 5520 5521 5522 5523 5524 5525 5527 5528 5530 5531 5533 5534 5535 5535 5537 5538 5539 5540 5541 5542 5542